This is the latest recevied weather packets stored in our database for station/object AA8FM-13. If no packets are shown the sender has not sent any weather packets the latest 10 day(s).
| Time | Temp. | Humidity | Pressure | Rain* | Wind** | Luminosity | Snow |
|---|---|---|---|---|---|---|---|
| 1777798399 | -0.56° C | 99% | 1014.5 hPa | 0 mm | - | 0 W/m² | - |
| 1777798096 | -0.56° C | 99% | 1014.5 hPa | 0 mm | - | 0 W/m² | - |
| 1777797794 | -0.56° C | 99% | 1014.5 hPa | 0 mm | - | 0 W/m² | - |
| 1777797491 | -0.56° C | 99% | 1014.5 hPa | 0 mm | - | 0 W/m² | - |
| 1777797189 | 0° C | 99% | 1014.4 hPa | 0 mm | - | 0 W/m² | - |
| 1777796885 | 0° C | 99% | 1014.5 hPa | 0 mm | - | 0 W/m² | - |
| 1777796582 | 0° C | 99% | 1014.3 hPa | 0 mm | - | 0 W/m² | - |
| 1777796277 | 0° C | 99% | 1014.2 hPa | 0 mm | - | 0 W/m² | - |
| 1777795974 | 0° C | 99% | 1014.5 hPa | 0 mm | - | 0 W/m² | - |
| 1777795669 | 0° C | 98% | 1014.4 hPa | 0 mm | - | 0 W/m² | - |
| 1777795367 | 0° C | 98% | 1014.3 hPa | 0 mm | - | 0 W/m² | - |
| 1777795063 | 0.56° C | 98% | 1014.3 hPa | 0 mm | - | 0 W/m² | - |
| 1777794760 | 0.56° C | 98% | 1014.1 hPa | 0 mm | - | 0 W/m² | - |
| 1777794456 | 0° C | 98% | 1014.2 hPa | 0 mm | - | 0 W/m² | - |
| 1777794151 | 0.56° C | 98% | 1014.2 hPa | 0 mm | - | 0 W/m² | - |
| 1777793848 | 0.56° C | 98% | 1014.1 hPa | 0 mm | - | 0 W/m² | - |
| 1777793546 | 0.56° C | 97% | 1013.9 hPa | 0 mm | - | 0 W/m² | - |
| 1777793244 | 0.56° C | 97% | 1013.9 hPa | 0 mm | - | 0 W/m² | - |
| 1777792941 | 0.56° C | 97% | 1013.9 hPa | 0 mm | - | 0 W/m² | - |
| 1777792637 | 0.56° C | 97% | 1014 hPa | 0 mm | - | 0 W/m² | - |
| 1777792334 | 1.11° C | 97% | 1013.8 hPa | 0 mm | - | 0 W/m² | - |
| 1777792030 | 1.11° C | 97% | 1014.1 hPa | 0 mm | - | 0 W/m² | - |
| 1777791729 | 1.11° C | 97% | 1014 hPa | 0 mm | - | 0 W/m² | - |
| 1777791426 | 1.67° C | 96% | 1013.8 hPa | 0 mm | - | 0 W/m² | - |
| 1777791123 | 1.11° C | 96% | 1013.6 hPa | 0 mm | - | 0 W/m² | - |
* Rain latest hour (hover to see other rain measurements)
** Current wind speed in m/s (hover to see current wind gust speed)